User: anonymous   Login
Location: White Ridge parking lot
(35.4984°N, 106.8413°W)
Time: 03:22:55
(UTC-06:00)
Language:

XW-2B - Orbit

View from above orbital plane
View from above orbital plane
View from above satellite
View from above satellite

Ground track
Ground track

The orbit data is extracted from the following two-line orbital elements,

1 40911U 15049N   20222.81717770  .00000693  00000-0  39197-4 0  9991
2 40911  97.4768 223.7947 0013702 179.6804 304.3353 15.16294600270251
Epoch (UTC): 09 August 2020 19:36:44
Eccentricity: 0.0013702
inclination: 97.4768°
perigee height: 507 km
apogee height: 526 km
right ascension of ascending node: 223.7947°
argument of perigee: 179.6804°
revolutions per day: 15.16294600
mean anomaly at epoch: 304.3353°
orbit number at epoch: 27025

The dashed part of the orbit path shows where the satellite is in the earth's shadow,  

DLR